Wind_Speed
42 43 44 44 45 45 46 47 47 48 48 48 48 48 49 49 50 50 50 50 50 51 51 52 52 52 52 52 51 51 52 51 49 49 50 51 52 53 53 52 52 52 52
41 42 43 44 44 45 46 46 47 47 47 47 48 48 49 49 50 50 49 50 50 50 51 52 53 52 52 52 51 52 52 52 51 50 49 50 52 53 53 53 54 52 53
40 41 42 43 43 44 44 44 45 46 46 47 47 48 48 48 49 50 49 49 49 49 50 51 52 52 52 52 52 52 52 52 52 51 50 51 51 52 53 53 53 53 53
40 40 41 41 42 43 43 44 44 44 45 46 46 47 47 48 48 48 48 48 48 48 48 49 50 51 52 53 53 52 52 52 53 52 52 52 51 52 52 52 52 52 53
38 38 38 39 39 40 41 42 43 43 44 45 45 46 46 47 47 47 47 47 47 46 46 47 48 49 50 51 52 52 51 52 52 53 53 52 51 51 51 51 51 52 52
36 36 37 38 38 39 40 41 41 42 43 43 43 43 44 44 45 46 46 46 46 44 44 44 45 46 47 47 49 49 49 49 49 49 50 50 50 50 50 50 50 50 51
37 37 37 38 38 39 40 40 41 41 42 42 42 42 43 43 44 44 44 45 45 43 42 42 42 43 44 44 46 46 47 47 48 48 48 49 48 48 48 48 49 50 50
36 37 38 39 39 39 39 39 40 40 40 41 42 42 42 42 43 43 44 44 44 43 42 42 42 42 41 42 43 44 45 46 47 47 47 47 48 48 48 48 48 49 50
36 37 37 38 38 38 38 39 39 39 40 40 41 41 41 41 41 41 42 42 42 42 43 43 42 41 40 41 41 43 44 45 46 46 47 47 47 46 46 47 48 48 48
36 36 37 37 37 38 38 38 38 38 39 40 40 40 41 40 40 40 40 41 41 41 41 42 42 41 40 41 41 42 43 43 44 45 46 46 45 45 45 45 46 46 46
35 36 36 37 37 37 36 37 37 37 37 38 38 38 38 39 39 39 38 39 39 40 40 41 41 41 41 41 40 41 41 41 42 43 43 44 44 44 43 43 43 42 42
34 35 35 36 36 35 35 35 35 35 36 37 37 37 37 37 36 36 36 36 37 38 39 39 40 41 41 41 40 39 39 39 40 40 41 41 41 41 41 41 41 40 40
33 34 34 34 34 34 35 35 34 34 35 35 35 35 35 35 34 34 35 35 36 37 37 38 39 40 40 40 40 39 39 38 38 38 38 38 38 38 38 38 38 39 38
32 33 33 33 34 34 33 33 33 33 33 33 33 33 33 33 33 33 34 34 35 35 36 36 37 37 37 37 37 38 38 37 37 37 36 36 36 36 36 37 37 37 37
32 32 32 32 33 33 33 32 32 32 32 32 32 32 31 32 32 33 33 33 34 34 34 34 34 34 34 35 36 36 36 36 35 34 34 34 34 35 35 36 36 36 36
31 31 31 31 32 32 31 31 31 31 31 31 31 31 31 31 31 32 32 32 32 32 32 32 32 32 33 33 33 33 33 33 32 33 32 33 33 33 33 34 34 34 34
31 31 31 31 31 31 30 30 30 30 30 30 30 29 29 29 30 30 31 31 30 30 30 30 30 31 31 31 31 30 30 30 31 31 31 31 31 32 32 33 33 33 33
31 31 31 30 30 30 29 29 29 29 29 29 29 28 29 29 29 29 29 29 28 28 28 28 29 29 29 29 29 28 28 28 29 29 29 29 30 30 30 31 31 31 31
30 30 30 29 29 29 28 28 28 28 28 28 28 28 28 28 28 28 27 27 27 27 27 27 27 27 27 27 27 27 27 27 27 27 27 28 28 28 28 29 29 29 29
29 29 28 28 28 28 27 27 27 27 27 27 27 28 27 27 26 26 26 26 26 26 26 26 26 26 26 26 26 26 26 26 25 25 25 26 26 27 27 27 27 27 27
27 26 26 26 26 26 26 26 26 26 26 26 27 27 26 26 26 25 25 25 26 26 25 25 24 24 24 25 25 24 24 24 24 24 24 25 25 25 25 25 25 24 24
24 25 25 25 25 25 25 25 25 25 25 25 25 25 25 24 24 24 24 25 25 24 24 23 23 23 23 23 23 23 23 23 23 23 23 24 24 23 23 23 23 23 23
24 24 24 24 24 24 24 24 24 23 23 23 23 24 24 24 24 24 24 24 24 23 23 22 22 22 22 22 22 22 22 23 23 22 22 22 22 22 21 21 21 21 21
22 22 22 23 23 23 23 23 23 23 23 23 23 23 23 23 23 23 23 23 22 22 22 22 21 21 22 22 22 22 22 22 22 22 21 21 21 21 20 20 20 20 19
22 22 22 22 22 22 22 22 22 22 22 22 22 22 22 23 23 23 22 22 22 21 21 21 21 21 22 22 22 22 22 21 21 21 20 20 19 19 19 19 18 18 18
22 22 22 22 21 21 21 21 21 21 21 22 22 22 22 22 22 22 21 21 21 21 21 21 21 21 21 21 21 21 21 21 21 21 20 20 19 18 18 18 17 17 17
Wind_Direction
264 264 264 264 264 264 264 265 265 266 267 267 268 269 270 270 271 271 272 272 271 269 270 269 268 267 268 268 268 268 268 268 269 269 268 267 267 267 268 268 268 269 269
265 265 265 264 264 264 265 266 266 266 267 267 267 269 270 271 271 271 272 273 272 270 270 269 268 268 267 267 268 269 269 269 269 269 269 268 268 268 268 268 268 268 269
265 266 265 265 264 264 265 266 267 268 268 268 269 270 271 271 272 272 272 273 272 271 270 270 268 268 268 267 268 269 269 269 269 269 270 270 269 269 269 269 270 269 269
266 266 266 266 266 266 266 267 268 269 269 269 270 271 272 273 273 274 274 275 272 272 271 270 269 268 268 267 268 268 268 269 269 269 270 271 270 271 271 270 270 270 270
267 266 266 267 268 269 269 269 270 270 271 272 273 273 274 274 274 274 274 274 274 273 272 271 269 269 268 267 267 267 268 269 269 269 270 271 271 271 270 270 271 271 271
266 266 266 268 269 269 270 270 271 271 272 273 274 274 275 276 276 275 274 273 273 273 273 272 271 271 269 269 267 268 268 269 270 270 270 271 272 271 271 271 271 271 271
266 267 267 267 268 270 271 271 271 272 273 273 274 275 276 277 277 276 275 275 273 274 273 271 271 272 271 270 269 268 268 269 270 271 272 271 272 271 272 272 272 272 271
266 268 268 268 269 270 272 272 272 272 273 274 275 276 277 278 278 277 275 275 274 273 272 271 272 272 272 272 271 270 270 270 271 272 273 273 273 272 271 272 272 272 272
268 269 269 269 269 270 271 272 272 272 273 275 276 277 278 278 279 278 276 275 274 273 272 272 272 272 272 272 272 272 271 271 272 273 273 273 273 273 273 272 272 272 272
269 270 269 269 270 271 271 271 272 273 274 276 277 278 278 278 278 278 276 275 274 273 272 271 272 272 273 273 274 274 273 273 273 273 273 273 273 273 273 274 274 273 273
269 270 270 270 270 271 272 272 272 274 275 277 278 279 279 278 278 278 278 276 275 273 272 271 270 272 274 275 277 277 276 275 274 273 273 274 273 273 273 274 274 273 274
270 270 270 270 270 270 271 272 272 273 275 277 279 280 279 279 279 278 278 277 275 275 274 273 272 273 275 277 278 278 278 277 276 275 274 274 274 274 274 274 275 275 274
270 270 271 271 270 271 271 272 273 274 276 278 279 279 279 279 278 278 278 278 277 276 276 276 276 276 276 278 279 279 278 278 277 277 275 274 274 274 275 275 275 276 275
272 272 271 271 271 272 271 272 274 276 277 278 279 279 277 277 278 279 279 279 279 278 278 278 278 278 278 280 280 280 279 277 277 277 276 276 275 274 274 275 275 275 275
272 273 272 272 273 272 272 273 274 276 277 278 278 278 277 278 279 280 281 281 280 280 280 279 280 280 280 280 280 280 279 278 278 278 277 275 275 275 275 275 275 274 274
273 273 273 273 273 273 273 274 275 276 277 279 279 279 279 280 282 283 283 282 282 281 280 279 279 280 280 280 281 281 280 280 279 278 277 277 276 276 276 276 276 275 274
273 273 272 273 273 273 273 274 276 277 278 279 280 280 281 282 284 284 284 283 282 282 281 281 280 280 281 281 281 281 280 280 279 278 277 278 278 277 277 277 276 276 275
272 272 272 273 273 272 272 274 276 277 278 279 279 279 281 284 285 285 284 283 283 283 283 282 281 281 280 281 281 281 282 281 281 280 279 278 278 278 278 278 277 277 277
271 271 271 271 271 271 272 274 276 277 278 278 278 279 282 284 285 286 285 285 284 284 284 284 283 282 281 281 282 283 283 283 281 280 280 280 280 280 280 280 279 279 279
271 271 270 270 269 270 271 273 275 276 277 279 279 280 282 284 285 286 286 286 286 286 286 284 283 283 283 283 284 285 284 283 282 281 281 282 283 283 283 282 281 280 280
271 270 269 268 269 269 271 274 275 275 277 278 280 281 282 284 286 287 288 287 286 287 286 284 283 283 284 284 285 285 285 285 284 283 284 284 284 285 285 284 282 281 281
271 270 269 267 267 269 271 273 275 277 279 280 280 281 283 284 287 288 288 287 286 286 285 283 283 284 285 286 286 287 287 286 286 285 287 286 285 285 285 284 283 283 282
271 270 269 268 268 269 271 273 275 278 280 281 281 282 284 286 288 289 289 287 286 285 285 284 283 283 285 286 287 289 289 288 287 286 288 287 285 285 285 285 285 284 283
271 270 269 270 270 271 273 274 276 279 280 281 282 283 284 286 288 289 289 288 286 285 284 282 282 283 284 286 287 288 289 289 289 288 287 287 287 285 284 284 285 285 283
270 270 270 271 272 273 274 275 276 279 281 282 283 285 286 288 289 290 289 288 286 285 284 282 282 284 285 285 285 287 288 288 288 287 287 287 287 285 283 283 283 283 283
271 271 270 270 271 272 274 276 277 279 281 283 284 285 287 289 290 290 290 289 287 286 285 284 284 286 287 285 285 285 286 286 287 286 286 285 284 284 282 282 283 283 283
Height
5653 5653 5653 5653 5654 5654 5655 5655 5655 5655 5654 5654 5653 5653 5652 5651 5650 5649 5649 5648 5647 5646 5646 5645 5645 5644 5644 5644 5644 5644 5645 5646 5647 5648 5647 5647 5646 5646 5646 5645 5645 5645 5645
5641 5642 5642 5642 5642 5642 5642 5642 5642 5642 5641 5641 5640 5640 5639 5638 5638 5637 5636 5635 5634 5633 5632 5632 5631 5631 5631 5631 5631 5631 5631 5631 5633 5634 5633 5633 5633 5632 5632 5632 5631 5631 5631
5630 5630 5630 5630 5630 5630 5630 5630 5630 5629 5629 5628 5627 5627 5626 5626 5625 5623 5623 5622 5621 5619 5618 5618 5617 5617 5617 5617 5617 5617 5618 5618 5618 5619 5620 5619 5619 5618 5618 5618 5617 5617 5616
5619 5619 5619 5619 5619 5619 5619 5619 5618 5617 5617 5616 5615 5614 5614 5613 5612 5611 5610 5609 5608 5606 5605 5604 5604 5603 5603 5603 5603 5604 5604 5604 5605 5605 5606 5605 5605 5604 5604 5604 5603 5603 5602
5609 5609 5609 5608 5608 5608 5608 5607 5607 5606 5605 5604 5603 5602 5601 5601 5600 5599 5597 5596 5595 5594 5592 5591 5590 5590 5589 5589 5590 5590 5590 5590 5591 5591 5591 5591 5591 5590 5590 5589 5589 5588 5588
5598 5598 5598 5598 5597 5597 5597 5596 5595 5594 5593 5592 5591 5590 5589 5588 5587 5586 5585 5584 5583 5582 5580 5579 5578 5577 5577 5576 5576 5577 5577 5577 5577 5577 5577 5577 5577 5576 5576 5575 5575 5574 5575
5588 5588 5587 5587 5587 5586 5586 5585 5584 5583 5582 5580 5580 5579 5578 5576 5575 5574 5572 5571 5571 5570 5568 5567 5566 5565 5564 5564 5564 5564 5564 5564 5564 5564 5563 5563 5563 5563 5562 5561 5560 5559 5559
5577 5577 5576 5576 5576 5575 5574 5573 5572 5571 5570 5569 5568 5567 5566 5565 5563 5562 5560 5559 5559 5558 5557 5556 5555 5554 5553 5552 5552 5551 5551 5551 5550 5550 5550 5549 5548 5547 5547 5546 5545 5545 5544
5566 5566 5565 5565 5565 5564 5563 5562 5561 5560 5559 5558 5557 5555 5554 5553 5551 5550 5548 5547 5546 5546 5545 5544 5543 5543 5541 5541 5540 5540 5539 5538 5537 5536 5535 5535 5534 5533 5532 5531 5531 5530 5529
5556 5555 5555 5554 5553 5553 5552 5551 5550 5549 5548 5547 5545 5544 5543 5541 5540 5538 5537 5536 5535 5534 5534 5533 5532 5531 5530 5529 5528 5527 5527 5526 5524 5523 5522 5521 5520 5519 5518 5517 5516 5515 5514
5545 5545 5544 5543 5543 5542 5541 5540 5539 5539 5537 5536 5535 5533 5532 5530 5529 5527 5525 5524 5523 5522 5522 5521 5520 5519 5518 5517 5516 5515 5514 5513 5512 5510 5509 5508 5507 5506 5505 5503 5502 5501 5500
5535 5534 5533 5533 5532 5532 5531 5530 5529 5528 5527 5525 5524 5522 5521 5519 5518 5516 5515 5513 5512 5511 5511 5510 5509 5508 5507 5506 5504 5503 5502 5501 5499 5498 5497 5496 5495 5493 5492 5491 5489 5488 5488
5524 5524 5523 5522 5522 5521 5521 5520 5519 5518 5517 5515 5514 5512 5511 5509 5508 5506 5505 5503 5501 5500 5499 5498 5498 5497 5496 5494 5493 5492 5490 5489 5488 5486 5485 5484 5483 5482 5480 5479 5478 5477 5476
5514 5513 5513 5512 5511 5511 5510 5510 5509 5508 5506 5505 5504 5502 5501 5499 5498 5496 5495 5493 5491 5490 5489 5488 5487 5486 5485 5484 5482 5480 5479 5478 5476 5475 5474 5473 5472 5471 5469 5468 5467 5466 5466
5504 5503 5503 5502 5501 5500 5500 5500 5499 5498 5497 5496 5494 5493 5491 5490 5488 5487 5485 5483 5482 5480 5479 5478 5477 5476 5474 5473 5471 5470 5468 5467 5465 5464 5463 5462 5461 5460 5459 5458 5457 5456 5455
5495 5494 5493 5492 5491 5491 5491 5490 5489 5489 5487 5486 5485 5483 5482 5481 5479 5477 5475 5474 5472 5471 5469 5468 5467 5466 5464 5463 5461 5460 5458 5457 5455 5454 5452 5451 5450 5449 5448 5447 5446 5445 5445
5485 5484 5484 5483 5482 5482 5481 5481 5480 5480 5478 5477 5476 5475 5473 5472 5470 5468 5466 5464 5463 5461 5460 5459 5457 5456 5455 5453 5452 5450 5449 5447 5446 5444 5443 5442 5440 5439 5438 5437 5436 5435 5435
5475 5475 5474 5474 5473 5473 5472 5472 5471 5471 5470 5468 5467 5466 5465 5463 5461 5459 5458 5456 5454 5453 5451 5450 5448 5447 5445 5444 5443 5441 5440 5438 5437 5435 5434 5433 5431 5430 5429 5428 5427 5426 5425
5466 5465 5465 5465 5464 5464 5464 5463 5463 5462 5461 5460 5459 5458 5457 5455 5453 5451 5450 5448 5447 5445 5443 5441 5440 5438 5437 5436 5434 5433 5431 5430 5428 5426 5425 5424 5423 5421 5420 5419 5418 5417 5416
5457 5456 5456 5456 5456 5456 5455 5455 5455 5454 5453 5452 5451 5450 5449 5447 5446 5444 5442 5440 5439 5437 5435 5433 5432 5430 5429 5428 5426 5425 5423 5422 5420 5418 5417 5416 5415 5413 5412 5410 5409 5408 5407
5448 5448 5447 5448 5448 5448 5447 5447 5447 5446 5445 5444 5443 5442 5441 5440 5438 5436 5434 5433 5431 5429 5427 5426 5424 5423 5421 5420 5418 5417 5415 5414 5412 5411 5410 5408 5407 5405 5404 5402 5401 5400 5399
5440 5440 5440 5440 5440 5440 5440 5439 5439 5438 5437 5437 5436 5434 5433 5432 5431 5429 5427 5425 5423 5422 5420 5419 5417 5416 5414 5413 5411 5410 5408 5407 5405 5404 5402 5401 5400 5398 5397 5395 5394 5393 5392
5433 5433 5432 5432 5433 5433 5432 5432 5431 5431 5430 5429 5428 5427 5426 5425 5423 5422 5420 5418 5416 5415 5413 5412 5410 5409 5407 5406 5405 5403 5402 5400 5398 5397 5395 5394 5393 5391 5390 5389 5387 5386 5385
5426 5426 5425 5425 5426 5425 5425 5425 5424 5424 5423 5422 5421 5420 5419 5417 5416 5414 5413 5411 5409 5408 5406 5405 5404 5402 5401 5399 5398 5397 5395 5393 5392 5390 5389 5388 5386 5385 5384 5383 5381 5380 5379
5419 5419 5419 5419 5419 5418 5418 5418 5417 5417 5416 5415 5414 5413 5411 5410 5408 5407 5405 5404 5402 5401 5400 5398 5397 5396 5394 5393 5391 5390 5388 5387 5385 5384 5382 5381 5380 5379 5378 5377 5376 5375 5374
5412 5412 5412 5412 5412 5412 5411 5411 5410 5410 5409 5408 5407 5406 5404 5403 5401 5400 5398 5397 5395 5394 5393 5392 5390 5389 5387 5386 5384 5383 5382 5380 5379 5377 5376 5375 5374 5373 5372 5371 5370 5369 5368